086  
AXUS43 KGID 211902  
MISGRI  
 
GID CWA HOURLY WEATHER ROUNDUP  
NATIONAL WEATHER SERVICE HASTINGS NE  
200 PM CDT SAT SEP 21 2019  
 
NOTE: "FAIR" INDICATES FEW OR NO CLOUDS BELOW 12,000 FEET WITH NO  
SIGNIFICANT WEATHER AND/OR OBSTRUCTIONS TO VISIBILITY.  
   
..SOUTH CENTRAL NEBRASKA
 
 
 
CITY SKY/WX TMP DP RH WIND PRES REMARKS  
GRAND ISLAND MOSUNNY 84 65 52 W7G17 29.84S  
KEARNEY SUNNY 82 62 50 N12 29.86S  
HASTINGS PTSUNNY 83 65 54 N7 29.85F  
ORD FAIR 82 56 40 W12 29.85S  
YORK CLOUDY 81 66 61 W7 29.84S  
AURORA MOSUNNY 84 66 55 W6 29.83F  
LEXINGTON FAIR 82 53 37 NW16 29.89F  
HOLDREGE SUNNY 82 60 48 N10G17 29.87S  
HEBRON CLOUDY 85 67 54 SW13G20 29.83F  
   
..NEBRASKA PANHANDLE
 
 
 
CITY SKY/WX TMP DP RH WIND PRES REMARKS  
CHADRON SUNNY 72 40 31 W18G29 29.93S  
ALLIANCE SUNNY 70 37 29 NW20G32 29.97S  
SCOTTSBLUFF SUNNY 71 36 27 W17G28 29.99F  
SIDNEY SUNNY 77 24 14 NW16G22 29.99F  
   
..WESTERN AND NORTH CENTRAL NEBRASKA
 
 
 
CITY SKY/WX TMP DP RH WIND PRES REMARKS  
VALENTINE SUNNY 76 43 30 W18G28 29.89S  
AINSWORTH SUNNY 76 38 26 W18 29.90R  
ONEILL FAIR 79 57 46 W10G17 29.85S  
BROKEN BOW FAIR 81 51 35 NW7 29.89F  
IMPERIAL SUNNY 77 28 16 N14 29.96F  
NORTH PLATTE SUNNY 80 36 20 N14G29 29.93S  
MCCOOK SUNNY 83 49 30 N17G23 29.90F  
   
..EASTERN NEBRASKA
 
 
 
CITY SKY/WX TMP DP RH WIND PRES REMARKS  
NORFOLK SUNNY 84 68 58 W12 29.80S  
SO SIOUX CITY PTSUNNY 82 71 69 SW15 29.78R  
TEKAMAH CLOUDY 80 70 71 S15 29.81S  
COLUMBUS SUNNY 83 69 62 SW8 29.82F  
ALBION MOSUNNY 84 65 53 NW9 29.83S  
OMAHA EPPLEY CLOUDY 79 69 71 S10 29.84R  
OFFUTT AFB CLOUDY 79 70 73 S8 29.87S  
MILLARD CLOUDY 80 70 71 S8 29.84S  
LINCOLN CLOUDY 81 67 62 SW10 29.84R  
NEBRASKA CITY CLOUDY 78 73 85 S13 29.86S  
BEATRICE CLOUDY 81 71 70 SW17G23 29.85S  
FALLS CITY CLOUDY 79 71 76 S13G21 29.86F  
   
..NORTHERN KANSAS
 
 
 
CITY SKY/WX TMP DP RH WIND PRES REMARKS  
GOODLAND SUNNY 80 48 32 NE14G21 29.95F  
HILL CITY SUNNY 87 62 43 NE8 29.86F  
PHILLIPSBURG SUNNY 88 63 42 CALM 29.84F  
OBERLIN FAIR 82 53 35 N13G20 29.94F  
SMITH CENTER CLOUDY 90 64 43 SW9G18 29.84F HX 91  
HAYS SUNNY 87 66 49 SW16G24 29.85F  
RUSSELL PTSUNNY 86 66 51 SW20G30 29.84F  
CONCORDIA CLOUDY 86 68 54 SW16G24 29.84F  
SALINA SUNNY 88 67 49 S21G32 29.85F HX 91  
TOPEKA LGT RAIN 76 69 79 S17G33 29.91F  
 
CLICK HERE TO GO TO PREVIOUS BULLETINS.

The Nexlab NE Page
The Nexlab KS Page Main Text Page